[[{"header":{"parameterUnit":"m.s-1","parameterCategory":1,"la1":30.2991,"la2":30.254,"lo1":-89.0895,"lo2":-89.0444,"dy":0.0017,"dx":0.0017,"nx":28,"ny":28,"refTime":"2023-07-20T03:00:00:Z","depth":0,"parameterNumber":2,"parameterNumberName":"U-component_of_WINDS"},"data":[0,0,0,0,0,0,0,0,0,0,0,0,0,0,0,0,0,0,0,0,0,0,0,0,0,0,0,0,0,0,0,0,0,0,0,0,0,0,0,0,0,0,0,0,0,0,0,0,0,0,0,0,0,0,0,0,0,0,4.5573,4.5573,0,4.5622,4.5622,4.5623,4.5531,4.5528,4.5525,4.5522,4.5571,4.5575,4.5579,0,0,0,0,0,0,0,0,0,0,0,0,0,4.5397,4.5401,4.5573,4.5573,4.5574,4.5622,4.5622,4.5623,4.5532,4.5528,4.5524,4.5521,4.557,4.5575,4.558,0,0,0,0,0,0,0,0,0,0,0,0,0,4.5463,4.5402,4.5573,4.5534,4.5531,4.5621,4.5622,4.5623,4.5533,4.5528,4.5524,4.5519,4.5568,4.5574,4.558,4.5709,0,0,4.5599,4.5602,0,0,0,0,0,0,0,0,4.5459,4.5469,4.5539,4.5537,4.5534,4.5566,4.5578,4.5652,4.5534,4.5532,4.5522,4.5517,4.5573,4.5578,4.5598,4.5712,4.5714,4.56,4.5603,4.5606,4.5608,0,0,0,0,0,0,0,4.5455,4.5467,4.5592,4.554,4.5537,4.5514,4.5518,4.5592,4.5577,4.5532,4.5525,4.5533,4.5571,4.5592,4.5598,4.5714,4.5599,4.5605,4.5609,4.5611,4.5933,4.5937,0,0,0,0,0,0,4.5455,4.5463,4.559,4.5593,4.5485,4.552,4.5525,4.556,4.5576,4.5574,4.5536,4.5528,4.5583,4.5591,4.5599,4.5748,4.5606,4.5612,4.5615,4.5928,4.5934,4.5939,0,0,0,0,0,0,4.5452,4.5467,4.5588,4.5527,4.554,4.5528,4.5568,4.5564,4.5584,4.558,4.5576,4.5561,4.558,4.5591,4.5682,4.5748,4.5615,4.562,4.5922,4.593,4.5936,4.6049,0,0,0,0,0,0,4.5447,4.5467,4.5517,4.5529,4.5544,4.5671,4.5573,4.5568,4.5596,4.5585,4.5602,4.56,4.5577,4.5673,4.5688,4.5754,4.5625,4.5916,4.5925,4.5934,4.6039,4.6059,4.6076,0,0,0,0,0,4.5441,4.5547,4.552,4.5536,4.5606,4.5676,4.5684,4.5656,4.5602,4.565,4.5647,4.56,4.574,4.5683,4.5699,4.5769,4.5912,4.5923,4.5933,4.603,4.6055,4.6075,0,0,0,0,0,0,4.5543,4.5548,4.5518,4.5631,4.5653,4.566,4.5721,4.5684,4.5722,4.5711,4.5674,4.5678,4.5776,4.5782,4.5719,4.5892,4.5816,4.5831,4.5884,4.5908,4.5926,4.5921,4.563,0,0,0,0,0,4.5579,4.5636,4.5637,4.5736,4.5749,4.5734,4.5763,4.5739,4.5761,4.577,4.5773,4.5796,4.5844,4.5877,4.5921,4.604,4.604,4.6096,4.6114,4.6129,4.6141,4.62,4.6224,4.5974,4.5974,4.5974,0,0,4.5653,4.5663,4.5701,4.5757,4.5771,4.5829,4.5742,4.5808,4.5849,4.578,4.5864,4.5868,4.5891,4.5995,4.6041,4.6003,4.6211,4.6143,4.6155,4.6159,4.6214,4.6237,4.6258,4.5982,4.598,4.5979,0,0,4.5817,4.5832,4.5914,4.593,4.5954,4.5942,4.5962,4.5974,4.5973,4.6059,4.6006,4.6056,4.6141,4.6158,4.6178,4.6346,4.6302,4.6362,4.6457,4.6515,4.6535,4.6552,4.6608,4.6629,4.6375,4.6375,4.6375,0,4.5906,4.5991,4.5961,4.6029,4.6054,4.5994,4.6075,4.6093,4.613,4.6147,4.6104,4.6208,4.6219,4.6324,4.6365,4.6385,4.6404,4.6358,4.6535,4.6552,4.6567,4.662,4.6642,4.6382,4.6381,4.638,4.638,0,4.6097,4.6157,4.6221,4.6257,4.6289,4.6364,4.6343,4.638,4.6354,4.6346,4.6432,4.6443,4.6487,4.6511,4.6487,4.6613,4.6588,4.6541,4.6463,4.6598,4.6647,4.6667,4.6391,4.6389,4.6387,4.6385,0,0,4.6325,4.6342,4.6366,4.638,4.6401,4.6446,4.6517,4.656,4.659,4.6618,4.6674,4.6748,4.6703,4.6726,4.6703,4.6754,4.6882,4.67,4.67,4.673,4.7016,4.7048,4.7073,4.6854,4.6858,4.6861,4.7013,0,4.6484,4.6606,4.658,4.67,4.6752,4.6696,4.6757,4.6776,4.6771,4.6814,4.6809,4.6859,4.6799,4.6812,4.6861,4.6856,4.6938,4.6845,4.6904,4.6906,4.6896,4.7099,4.7134,4.7276,4.7032,4.7036,4.7038,0,4.6685,4.6719,4.6844,4.6852,4.6874,4.693,4.6965,4.7009,4.7028,4.702,4.7045,4.7011,4.708,4.7004,4.7096,4.7033,4.7056,4.7057,4.7062,4.7063,4.6977,4.7101,4.7321,4.7341,4.7069,4.7066,4.7064,0,4.6833,4.6911,4.6994,4.7008,4.7022,4.7062,4.707,4.7084,4.7111,4.7142,4.7158,4.7198,4.7219,4.725,4.7227,4.7174,4.7321,4.7244,4.7314,4.7315,4.7344,4.7342,4.7567,4.7367,4.7366,4.7366,4.7365,0,4.7011,4.7088,4.706,4.7111,4.7195,4.7164,4.7248,4.7249,4.7262,4.7311,4.7266,4.7312,4.7281,4.7324,4.7307,4.7384,4.7395,4.7388,4.7382,4.739,4.739,4.7402,4.7389,4.7372,4.737,4.7369,4.7368,0,4.7189,4.7174,4.726,4.7266,4.7269,4.733,4.7335,4.7381,4.7373,4.7435,4.7448,4.7434,4.7483,4.7464,4.7516,4.7504,4.7601,4.7584,4.7594,4.7588,4.7657,4.7649,4.7894,4.7923,4.7708,4.771,4.7712,0,4.7301,4.7359,4.7371,4.74,4.741,4.7459,4.7485,4.7457,4.7486,4.7511,4.7554,4.7599,4.7632,4.7713,4.7707,4.7746,4.7726,4.7809,4.7732,4.7737,4.7722,4.7717,4.7721,4.7824,4.7826,4.7828,4.783,0,4.7501,4.749,4.753,4.7567,4.7599,4.7627,4.7651,4.7677,4.765,4.7685,4.7734,4.776,4.7812,4.7856,4.789,4.7897,4.7858,4.7855,4.7872,4.7879,4.788,4.7876,4.7632,4.7848,4.7847,4.7845,4.7844,4.7843,4.7646,4.7693,4.7708,4.7753,4.7768,4.7791,4.7833,4.783,4.787,4.791,4.7892,4.7947,4.7962,4.8004,4.8016,4.8058,4.8025,4.8052,4.8058,4.8063,4.807,4.7877,4.8065,4.8064,4.8064,4.8063,4.8063,0,4.7839,4.7845,4.7887,4.7921,4.7956,4.7918,4.7942,4.7973,4.8023,4.8041,4.8074,4.8129,4.8171,4.8169,4.8207,4.824,4.8223,4.8251,4.8246,4.8247,4.81,4.8079,4.8264,4.8264,4.8264,4.8264,4.8264,4.8264,4.7943,4.8019,4.801,4.8092,4.8098,4.8152,4.8168,4.8188,4.8202,4.8264,4.8299,4.8297,4.8306,4.8344,4.838,4.8378,4.8392,4.8426,4.8417,4.8278,4.8258,4.8239,4.8219,4.843,4.8431,4.856,4.8561,4.8562]},{"header":{"parameterUnit":"m.s-1","parameterCategory":1,"la1":30.2991,"la2":30.254,"lo1":-89.0895,"lo2":-89.0444,"dy":0.0017,"dx":0.0017,"nx":28,"ny":28,"refTime":"2023-07-20T03:00:00:Z","depth":0,"parameterNumber":3,"parameterNumberName":"V-component_of_WINDS"},"data":[0,0,0,0,0,0,0,0,0,0,0,0,0,0,0,0,0,0,0,0,0,0,0,0,0,0,0,0,0,0,0,0,0,0,0,0,0,0,0,0,0,0,0,0,0,0,0,0,0,0,0,0,0,0,0,0,0,0,4.721,4.7211,0,4.7277,4.7277,4.7278,4.7231,4.7229,4.7227,4.7225,4.7289,4.7293,4.7296,0,0,0,0,0,0,0,0,0,0,0,0,0,4.7037,4.704,4.721,4.7211,4.7212,4.7276,4.7277,4.7278,4.7231,4.7229,4.7226,4.7224,4.7288,4.7292,4.7297,0,0,0,0,0,0,0,0,0,0,0,0,0,4.7108,4.7041,4.721,4.7196,4.7196,4.7276,4.7277,4.7279,4.7232,4.7229,4.7225,4.7222,4.7286,4.7292,4.7297,4.7394,0,0,4.7314,4.7316,0,0,0,0,0,0,0,0,4.7104,4.7115,4.7197,4.7197,4.7197,4.7242,4.724,4.7317,4.7233,4.7218,4.7225,4.7221,4.7276,4.7282,4.7301,4.7397,4.74,4.7315,4.7318,4.732,4.7322,0,0,0,0,0,0,0,4.71,4.7112,4.7236,4.7198,4.7198,4.7185,4.7192,4.7254,4.7263,4.7219,4.7216,4.7224,4.7275,4.7296,4.7302,4.7401,4.7314,4.7319,4.7323,4.7325,4.7576,4.7579,0,0,0,0,0,0,4.7096,4.7108,4.7234,4.7238,4.7142,4.719,4.7198,4.7231,4.7263,4.7265,4.7227,4.7222,4.7288,4.7296,4.7304,4.7418,4.732,4.7325,4.7329,4.7573,4.7577,4.7581,0,0,0,0,0,0,4.7093,4.7108,4.7231,4.7172,4.7187,4.7197,4.7234,4.7234,4.7255,4.7269,4.727,4.7247,4.7286,4.7297,4.7372,4.742,4.7328,4.7333,4.7569,4.7574,4.7579,4.7648,0,0,0,0,0,0,4.7088,4.7107,4.7146,4.7174,4.719,4.7299,4.7237,4.7237,4.7265,4.7259,4.7288,4.729,4.7284,4.7364,4.7377,4.7426,4.7337,4.7565,4.7571,4.7577,4.7641,4.7654,4.7666,0,0,0,0,0,4.7082,4.7162,4.7148,4.7163,4.7239,4.7302,4.7312,4.7305,4.7269,4.7306,4.7315,4.7289,4.7413,4.7372,4.7387,4.7437,4.7562,4.7569,4.7577,4.7635,4.7652,4.7665,0,0,0,0,0,0,4.7139,4.7166,4.715,4.7242,4.727,4.7294,4.7342,4.7323,4.7361,4.7354,4.7342,4.7349,4.7428,4.744,4.7394,4.7531,4.7481,4.7492,4.7521,4.7536,4.7548,4.7543,4.7342,0,0,0,0,0,4.7162,4.7213,4.7233,4.7312,4.7327,4.7332,4.7359,4.7352,4.738,4.7392,4.7406,4.7433,4.7478,4.7508,4.755,4.7642,4.7647,4.7684,4.7697,4.7707,4.7716,4.7764,4.778,4.7606,4.7606,4.7605,0,0,4.721,4.7231,4.7264,4.7324,4.7345,4.7396,4.7342,4.7399,4.7437,4.74,4.7472,4.7483,4.7512,4.7596,4.7634,4.7609,4.7765,4.7717,4.7725,4.7728,4.7773,4.779,4.7804,4.7611,4.761,4.7609,0,0,4.7324,4.7346,4.7413,4.7435,4.7468,4.7471,4.7487,4.7514,4.752,4.7592,4.7565,4.7608,4.7686,4.7708,4.7729,4.7849,4.7825,4.7863,4.7927,4.7973,4.7987,4.7999,4.804,4.8055,4.7872,4.7872,4.7872,0,4.738,4.7458,4.745,4.7509,4.7534,4.7504,4.757,4.7592,4.7637,4.7654,4.7626,4.7722,4.774,4.7827,4.7856,4.7875,4.7891,4.7859,4.7986,4.7998,4.8009,4.8048,4.8064,4.7876,4.7876,4.7876,4.7875,0,4.7523,4.7577,4.7627,4.7671,4.7703,4.7765,4.7765,4.7797,4.7786,4.7791,4.7863,4.7884,4.7928,4.7948,4.7938,4.8034,4.8017,4.7988,4.7937,4.803,4.8066,4.8081,4.7882,4.7881,4.788,4.7879,0,0,4.7675,4.7714,4.7732,4.7751,4.7784,4.7825,4.7884,4.7929,4.7956,4.7987,4.8036,4.8101,4.8074,4.8098,4.809,4.8131,4.8222,4.8096,4.8096,4.8117,4.8326,4.8347,4.8364,4.8207,4.8209,4.8212,4.8323,0,4.779,4.7896,4.7889,4.7988,4.8036,4.8007,4.8059,4.8083,4.8089,4.8129,4.8135,4.8181,4.8142,4.8156,4.8196,4.8203,4.8263,4.8195,4.825,4.8252,4.8242,4.8384,4.8407,4.8511,4.8337,4.834,4.8341,0,4.7938,4.7975,4.8078,4.8102,4.8122,4.8169,4.8208,4.8248,4.8274,4.8275,4.8302,4.8286,4.8344,4.8292,4.837,4.8323,4.8345,4.8352,4.8355,4.836,4.8302,4.839,4.8544,4.8559,4.8364,4.8362,4.836,0,4.8037,4.8112,4.8183,4.82,4.823,4.8263,4.8277,4.8301,4.8327,4.8361,4.8377,4.8417,4.8439,4.8469,4.8463,4.8426,4.8543,4.8491,4.8543,4.8543,4.8569,4.8567,4.8726,4.8585,4.8584,4.8584,4.8584,0,4.8165,4.8228,4.8227,4.8271,4.8341,4.8332,4.8401,4.8411,4.8431,4.8475,4.8452,4.8493,4.8484,4.8524,4.852,4.8584,4.8594,4.8595,4.8593,4.8597,4.8596,4.861,4.8602,4.8588,4.8587,4.8587,4.8586,0,4.8286,4.8289,4.8364,4.8386,4.8393,4.8443,4.8461,4.8501,4.8505,4.856,4.8572,4.8577,4.8622,4.862,4.8672,4.8669,4.8748,4.8738,4.8739,4.8736,4.8789,4.8783,4.8962,4.8984,4.8829,4.8831,4.8832,0,4.8368,4.8416,4.8443,4.8471,4.8488,4.8533,4.856,4.8552,4.858,4.8613,4.8649,4.8693,4.8727,4.8801,4.8808,4.8847,4.8837,4.8897,4.8842,4.8844,4.8836,4.8833,4.8837,4.8907,4.8909,4.891,4.8911,0,4.8511,4.8509,4.8549,4.859,4.8622,4.8653,4.8682,4.8705,4.87,4.8733,4.878,4.8807,4.8859,4.8902,4.8939,4.8951,4.893,4.8928,4.8942,4.8946,4.8944,4.8944,4.8767,4.8924,4.8923,4.8922,4.8921,4.8921,4.8614,4.8654,4.868,4.8725,4.8745,4.8772,4.881,4.8818,4.8858,4.89,4.8893,4.8945,4.8968,4.9015,4.903,4.907,4.9048,4.9069,4.9074,4.9079,4.9084,4.8939,4.9076,4.9076,4.9076,4.9075,4.9075,0,4.8754,4.8769,4.881,4.8851,4.8885,4.8864,4.8893,4.8923,4.897,4.8993,4.9028,4.908,4.9122,4.9131,4.917,4.92,4.9191,4.921,4.9207,4.921,4.9102,4.9085,4.9216,4.9216,4.9216,4.9216,4.9216,4.9216,4.8831,4.8899,4.89,4.8976,4.899,4.9042,4.906,4.9084,4.9102,4.9163,4.9197,4.9203,4.9221,4.926,4.9296,4.9298,4.9313,4.9336,4.9333,4.9232,4.9218,4.9204,4.9189,4.9339,4.9339,4.9438,4.9439,4.9439]}]]